Regional Weather Roundup
Issued by NWS

Home | Current Version | Previous Version | Text Only | Print | Product List | Glossary On
Versions: 1 2 3 4 5 6 7 8 9 10 11 12 13 14 15 16 17 18 19 20 21 22 23 24 25 26 27 28 29 30 31 32 33 34 35 36 37 38 39 40 41 42 43 44 45 46 47 48 49 50
000
ASUS44 KMEG 090010
RWRTN
TENNESSEE HOURLY STATE WEATHER ROUNDUP
NATIONAL WEATHER SERVICE MEMPHIS TN
600 PM CST MON FEB 08 2016

TNZ002-004-019-021-049-052-054-088>092-090100-
WEST TENNESSEE

CITY           SKY/WX    TMP DP  RH WIND       PRES   REMARKS
MEMPHIS INTL   CLOUDY    40  20  44 NW18G26   30.00R WCI  31
NWS MEMPHIS      N/A     39 N/A N/A MISG        N/A
JACKSON        CLOUDY    36  23  59 NW16G25   29.96R WCI  26
DYERSBURG      CLOUDY    36  21  55 NW15G24   29.98R WCI  26
UNION CITY     CLOUDY    32  19  59 NW12      29.93R WCI  23
PARIS          CLOUDY    28  18  64 VRB7      29.91S WCI  21
$$

TNZ008-025-027-028-033-062-065-066-090100-
NORTH MIDDLE TENNESSEE

CITY           SKY/WX    TMP DP  RH WIND       PRES   REMARKS
NASHVILLE      LGT SNOW  32  27  80 NW12G22   29.89R VSB 1   WCI  23
CLARKSVILLE    CLOUDY    30  23  75 NW15      29.89R WCI  19
SMYRNA         FLURRIES  32  28  85 NW8       29.90R WCI  25
COOKEVILLE     CLOUDY    30  28  93 NW10      29.82R WCI  21
CROSSVILLE     LGT SNOW  32  28  85 W16G24    29.76R VSB 1   WCI  21
$$

TNZ061-075-076-078-094-096-097-090100-
SOUTH MIDDLE TENNESSEE

CITY           SKY/WX    TMP DP  RH WIND       PRES   REMARKS
FAYETTEVILLE   CLOUDY    37  23  56 W6G13     29.87R WCI  33
TULLAHOMA      MOCLDY    32  25  74 W8        29.86R WCI  25
WINCHESTER     CLOUDY    34  25  69 NW7       29.87R WCI  28
MCMINNVILLE    CLOUDY    32  27  80 W12       29.84R WCI  23
COLUMBIA       CLOUDY    36  25  64 W7        29.87S WCI  30
SHELBYVILLE    CLOUDY    36  27  69 W9        29.88R WCI  29
$$

TNZ017-018-042-046-047-090100-
NORTHEAST TENNESSEE

CITY           SKY/WX    TMP DP  RH WIND       PRES   REMARKS
TRI CITIES     FLURRIES  35  30  82 W8        29.71R WCI  29
$$

TNZ012-013-036-069-073-074-090100-
CENTRAL EAST TENNESSEE

CITY           SKY/WX    TMP DP  RH WIND       PRES   REMARKS
KNOXVILLE      CLOUDY    40  22  48 SW13      29.76R WCI  32
OAK RIDGE      CLOUDY    39  26  59 W5        29.77S
GATLINBURG     CLOUDY    37  23  56 W7        29.75S WCI  32
MORRISTOWN     CLOUDY    37  27  65 NW14      29.73S WCI  29
$$

TNZ083-085-099-090100-
SOUTHEAST TENNESSEE

CITY           SKY/WX    TMP DP  RH WIND       PRES   REMARKS
CHATTANOOGA    LGT SNOW  40  27  59 NW21G31   29.85R FOG     WCI  30
$$

SKY/WX REPORTED AS FAIR MEANS FEW OR NO CLOUDS BELOW
12 THOUSAND FEET.




USA.gov is the U.S. government's official web portal to all federal, state and local government web resources and services.